NOAA NWS Hourly Roundups by Site

Regional Weather Roundup for Detroit, MI

To Select Another Site Choose from List

Select Site:  

928
ASUS43 KDTX 221210
RWRMI
MICHIGAN HOURLY REGIONAL WEATHER ROUNDUP
NATIONAL WEATHER SERVICE DETROIT/PONTIAC MI
700 AM EST WED JAN 22 2020

NOTE: "FAIR" INDICATES FEW OR NO CLOUDS BELOW 12,000 FEET WITH NO
SIGNIFICANT WEATHER AND/OR OBSTRUCTION TO VISIBILITY.

MIZ047>049-052>055-059>063-066>070-074>076-081>083-221300-
SOUTHEAST LOWER MICHIGAN

CITY           SKY/WX    TMP DP  RH WIND       PRES   REMARKS
ADRIAN         FAIR      17  14  88 SW7       30.34F WCI   8
6HR MIN TEMP:  16; 6HR MAX TEMP:  19;

ALMA           MOCLDY    20  16  86 S8        30.26S WCI  10
6HR MIN TEMP:  19; 6HR MAX TEMP:  22;

ANN ARBOR      FAIR      15  12  88 SW6       30.32F FOG     WCI   6
BAD AXE        FAIR      22  18  83 SW14      30.25F WCI   9
6HR MIN TEMP:  22; 6HR MAX TEMP:  24;

CARO           FAIR      21  16  80 S8        30.27F WCI  12
DETROIT CITY   FAIR      21  15  78 SW9       30.35R WCI  11
6HR MIN TEMP:  21; 6HR MAX TEMP:  23;

DETROIT        CLOUDY    18  15  88 S8        30.35S WCI   8
6HR MIN TEMP:  17; 6HR MAX TEMP:  20;

FLINT          FAIR      21  14  74 SW7       30.30S WCI  12
6HR MIN TEMP:  21; 6HR MAX TEMP:  23;

GROSSE ILE     FAIR      22  17  79 SW9       30.36R WCI  12
6HR MIN TEMP:  22; 6HR MAX TEMP:  24;

HILLSDALE      FAIR      18  15  86 SW6       30.30S WCI  10
6HR MIN TEMP:  18; 6HR MAX TEMP:  20;

HOWELL         FAIR      18  15  87 S6        30.29F WCI  10
6HR MIN TEMP:  18; 6HR MAX TEMP:  21;


CITY           SKY/WX    TMP DP  RH WIND       PRES   REMARKS
JACKSON        FAIR      20  14  77 S10       30.30F WCI   9
6HR MIN TEMP:  19; 6HR MAX TEMP:  22;

LAMBERTVILLE   FAIR      19  15  82 S5        30.37R WCI  13
6HR MIN TEMP:  19; 6HR MAX TEMP:  22;

LANSING        FAIR      20  14  77 S13       30.29F WCI   7
6HR MIN TEMP:  20; 6HR MAX TEMP:  22;

LAPEER         FAIR      22  15  75 SW7       30.29F WCI  13
6HR MIN TEMP:  20; 6HR MAX TEMP:  24;

MASON          FAIR      18  15  86 CALM      30.30S
6HR MIN TEMP:  18; 6HR MAX TEMP:  20;

MONROE         FAIR      19  14  78 S6        30.36R WCI  11
6HR MIN TEMP:  19; 6HR MAX TEMP:  21;

MT. CLEMENS    FAIR      21  19  91 SW9       30.33R WCI  11
6HR MIN TEMP:  21; 6HR MAX TEMP:  23;

PONTIAC        FAIR      18  14  84 S6        30.29S WCI  10
6HR MIN TEMP:  18; 6HR MAX TEMP:  21;

PORT HOPE        N/A     23  16  74 SW13G24   30.23S WCI  11
6HR MIN TEMP:  23; 6HR MAX TEMP:  25;

PORT HURON     FAIR      23  16  74 SW6       30.33R WCI  16
TRI CITIES     FAIR      21  14  74 SW10      30.26F WCI  10
6HR MIN TEMP:  20; 6HR MAX TEMP:  23;

MIDLAND        CLOUDY    22  17  83 S9        30.24F WCI  11
6HR MIN TEMP:  20; 6HR MAX TEMP:  22;

TROY           FAIR      21  18  90 SW7       30.35R WCI  12
SAGINAW HB     FAIR      21  16  79 S12       30.27F WCI   9
$$
MIZ043>046-050>051-056>058-064>065-071>073-077>080-221300-
SOUTHWEST LOWER MICHIGAN

CITY           SKY/WX    TMP DP  RH WIND       PRES   REMARKS
BATTLE CREEK   FAIR      19  16  88 S12       30.29F WCI   7
6HR MIN TEMP:  19; 6HR MAX TEMP:  21;

BENTON HARBOR  FAIR      21  16  81 S7        30.29F WCI  12
6HR MIN TEMP:  21; 6HR MAX TEMP:  23;

BIG RAPIDS     MOCLDY    26  21  83 SW7       30.18S WCI  18
6HR MIN TEMP:  26; 6HR MAX TEMP:  28;

COLDWATER      FAIR      18  16  92 SW5       30.32S WCI  11
6HR MIN TEMP:  18; 6HR MAX TEMP:  21;

FREMONT        CLOUDY    29  25  83 S8G17     30.20S WCI  21
6HR MIN TEMP:  26; 6HR MAX TEMP:  31;

HOLLAND        FAIR      21  17  84 S12       30.25F WCI   9
6HR MIN TEMP:  20; 6HR MAX TEMP:  22;

GRAND RAPIDS   MOCLDY    21  15  78 S10       30.26F WCI  10
6HR MIN TEMP:  17; 6HR MAX TEMP:  22;

IONIA          FAIR      18  14  86 S10       30.27S WCI   6
KALAMAZOO      FAIR      19  15  84 S9        30.29F FOG     WCI   8
6HR MIN TEMP:  18; 6HR MAX TEMP:  21;

LUDINGTON      CLOUDY    31  28  87 SW21G28   30.16S WCI  19
6HR MIN TEMP:  30; 6HR MAX TEMP:  32;

MARSHALL       FAIR      19  14  80 SW5       30.30S WCI  12
6HR MIN TEMP:  19; 6HR MAX TEMP:  22;

MOUNT PLEASANT CLOUDY    25  20  81 S6        30.22F WCI  18
6HR MIN TEMP:  24; 6HR MAX TEMP:  26;

MUSKEGON       MOCLDY    31  23  72 SW23G32   30.21F WCI  18
6HR MIN TEMP:  31; 6HR MAX TEMP:  32;

SOUTH HAVEN    FAIR      22  18  84 S9        30.28S WCI  12
$$
MIZ016>042-221300-
NORTHERN LOWER MICHIGAN

CITY           SKY/WX    TMP DP  RH WIND       PRES   REMARKS
ALPENA         FAIR      24  19  81 S9        30.12F WCI  14
6HR MIN TEMP:  23; 6HR MAX TEMP:  27;

BEAVER ISLAND  CLOUDY    33  27  79 SW24G33   30.03F WCI  20
6HR MIN TEMP:  32; 6HR MAX TEMP:  33;

BELLAIRE       FAIR      30  23  75 S9        30.10F WCI  22
6HR MIN TEMP:  29; 6HR MAX TEMP:  30;

CADILLAC       CLOUDY    26  22  85 SW14G21   30.10S WCI  15
CHARLEVOIX     FAIR      31  23  72 S10       30.08S WCI  22
6HR MIN TEMP:  29; 6HR MAX TEMP:  32;

FRANKFORT      CLOUDY    32  26  78 SW20G30   30.12S WCI  20
GAYLORD        FAIR      25  21  85 SW16G26   30.06F WCI  12
6HR MIN TEMP:  23; 6HR MAX TEMP:  25;

GRAYLING         N/A     26  22  87 SW12      30.09F WCI  15
6HR MIN TEMP:  23; 6HR MAX TEMP:  26;

HARBOR SPRINGS FAIR      31  26  81 SW13G21   30.07S WCI  21
HOUGHTON LAKE  FAIR      25  19  78 SW13      30.13F WCI  14
6HR MIN TEMP:  24; 6HR MAX TEMP:  25;

MANISTEE       CLOUDY    30  25  81 S8G17     30.14S WCI  22
OSCODA         FAIR      21  16  82 SW13      30.18R WCI   9
6HR MIN TEMP:  21; 6HR MAX TEMP:  24;

PELLSTON       FAIR      30  23  75 SW10      30.06F WCI  21
6HR MIN TEMP:  29; 6HR MAX TEMP:  31;

ROGERS CITY    FAIR      27  22  81 SW7G16    30.08F WCI  19
TRAVERSE CITY  MOCLDY    31  23  72 SW12G22   30.09S WCI  22
6HR MIN TEMP:  30; 6HR MAX TEMP:  32;

$$
MIZ007>008-015-221300-
EASTERN UPPER MICHIGAN

CITY           SKY/WX    TMP DP  RH WIND       PRES   REMARKS
KINROSS        CLOUDY    32  26  78 SW15G30   30.02R WCI  22
6HR MIN TEMP:  29; 6HR MAX TEMP:  32; 6HR PCP: TRACE;

MACKINAC ISLAN CLOUDY    31  26  80 SW15G25   30.03F WCI  20
6HR MIN TEMP:  30; 6HR MAX TEMP:  31;

NEWBERRY       FAIR      28  24  84 SW22G30   29.97S WCI  14
6HR MIN TEMP:  26; 6HR MAX TEMP:  28;

S. S. MARIE    CLOUDY    33  24  69 SW13G23   30.02R WCI  24
6HR MIN TEMP:  30; 6HR MAX TEMP:  33;

MUNISING         N/A     22  15  75 S13G22    29.95F WCI  10
6HR MIN TEMP:  20; 6HR MAX TEMP:  22;

$$
MIZ004>006-011>014-085-221300-
CENTRAL UPPER MICHIGAN

CITY           SKY/WX    TMP DP  RH WIND       PRES   REMARKS
MANISTIQUE     FAIR      26  21  82 SW16G28   30.01S WCI  13
6HR MIN TEMP:  24; 6HR MAX TEMP:  26;

ESCANABA       FAIR      21  17  84 SW13      30.02F WCI   9
6HR MIN TEMP:  18; 6HR MAX TEMP:  21;

MENOMINEE      FAIR      22  18  85 SW10      30.04F WCI  11
6HR MIN TEMP:  19; 6HR MAX TEMP:  22;

SAWYER-GWINN   MOCLDY    19  14  79 SW18      29.90F WCI   4
$$
MIZ001>003-009>011-084-221300-
WESTERN UPPER MICHIGAN

CITY           SKY/WX    TMP DP  RH WIND       PRES   REMARKS
IRON MOUNTAIN  CLOUDY    20  13  74 S8        29.92F WCI  10
6HR MIN TEMP:  17; 6HR MAX TEMP:  20;

HOUGHTON       CLOUDY    25  15  66 SW13G23   29.82F WCI  14
6HR MIN TEMP:  24; 6HR MAX TEMP:  27;

COPPER HARBOR    N/A     25  16  68 VRB6      29.84S WCI  18
6HR MIN TEMP:  25; 6HR MAX TEMP:  27;

IRONWOOD       CLOUDY    22  17  81 SW13G20   29.85F WCI  10
6HR MIN TEMP:  21; 6HR MAX TEMP:  22; 6HR PCP: TRACE;

$$

ABBREVIATIONS USED IN REMARKS
   TC - TEMPERATURE IN CELSIUS
  WCI - WIND CHILL INDEX
   HX - HEAT INDEX
  VSB - VISIBILITY




 

View Past Reports for Detroit, MI.

Products Courtesy of NOAA-NWS
NWS Information Parsing Script by Ken True at Saratoga Weather - Script by SE Lincoln Weather.